This is the latest recevied weather packets stored in our database for station/object KA1AL. If no packets are shown the sender has not sent any weather packets the latest 10 day(s).
| Time | Temp. | Humidity | Pressure | Rain* | Wind** | Luminosity | Snow |
|---|---|---|---|---|---|---|---|
| 1777588064 | 6.67° C | 99% | 1005.3 hPa | 0 mm | - | 17 W/m² | - |
| 1777587760 | 6.67° C | 99% | 1005.3 hPa | 0 mm | - | 23 W/m² | - |
| 1777587458 | 6.67° C | 99% | 1005.6 hPa | 1.78 mm | - | 22 W/m² | - |
| 1777587157 | 6.67° C | 99% | 1005.5 hPa | 1.78 mm | - | 16 W/m² | - |
| 1777586851 | 6.67° C | 99% | 1005.6 hPa | 1.27 mm | - | 18 W/m² | - |
| 1777586547 | 6.67° C | 99% | 1005.6 hPa | 3.05 mm | - | 28 W/m² | - |
| 1777586243 | 6.67° C | 99% | 1005.6 hPa | 1.78 mm | - | 23 W/m² | - |
| 1777585940 | 6.67° C | 99% | 1006.2 hPa | 3.05 mm | - | 23 W/m² | - |
| 1777585636 | 6.67° C | 99% | 1006.1 hPa | 3.05 mm | - | 32 W/m² | - |
| 1777585331 | 6.67° C | 99% | 1006.1 hPa | 3.05 mm | - | 36 W/m² | - |
| 1777585026 | 6.67° C | 99% | 1005.7 hPa | 1.27 mm | - | 30 W/m² | - |
| 1777584723 | 6.67° C | 99% | 1006 hPa | 1.27 mm | - | 25 W/m² | - |
| 1777584421 | 6.67° C | 99% | 1006.1 hPa | 1.78 mm | - | 39 W/m² | - |
| 1777584116 | 6.67° C | 99% | 1006.2 hPa | 1.78 mm | - | 37 W/m² | - |
| 1777583816 | 6.67° C | 99% | 1006 hPa | 1.78 mm | - | 49 W/m² | - |
| 1777583512 | 6.67° C | 99% | 1006.1 hPa | 4.83 mm | - | 58 W/m² | - |
| 1777583211 | 6.67° C | 99% | 1006.3 hPa | 6.1 mm | - | 43 W/m² | - |
| 1777582906 | 6.67° C | 99% | 1006.4 hPa | 4.32 mm | - | 30 W/m² | - |
| 1777582604 | 6.11° C | 99% | 1006.4 hPa | 4.83 mm | - | 23 W/m² | - |
| 1777582299 | 6.11° C | 99% | 1006.6 hPa | 4.32 mm | - | 23 W/m² | - |
| 1777581997 | 6.11° C | 99% | 1006.4 hPa | 4.83 mm | - | 24 W/m² | - |
| 1777581692 | 6.11° C | 99% | 1006.5 hPa | 3.05 mm | - | 32 W/m² | - |
| 1777581387 | 6.11° C | 99% | 1006.5 hPa | 3.05 mm | - | 42 W/m² | - |
| 1777581087 | 6.11° C | 99% | 1006.3 hPa | 4.83 mm | - | 41 W/m² | - |
| 1777580786 | 6.11° C | 99% | 1006.3 hPa | 3.05 mm | - | 53 W/m² | - |
* Rain latest hour (hover to see other rain measurements)
** Current wind speed in m/s (hover to see current wind gust speed)